Regional Weather Roundup
Issued by NWS

Home | Current Version | Previous Version | Graphics & Text | Print | Product List | Glossary On
Versions: 1 2 3 4 5 6 7 8 9 10 11 12 13 14 15 16 17 18 19 20 21 22 23 24 25 26 27 28 29 30 31 32 33 34 35 36 37 38 39 40 41 42 43 44 45 46 47 48 49 50
000
ASUS43 KMPX 220710
RWRMN
WEATHER ROUNDUP FOR MINNESOTA
NATIONAL WEATHER SERVICE TWIN CITIES/CHANHASSEN MN
200 AM CDT SUN OCT 22 2017


NOTE: "FAIR" INDICATES FEW OR NO CLOUDS BELOW 12,000 FEET WITH NO
SIGNIFICANT WEATHER AND/OR OBSTRUCTIONS TO VISIBILITY. N/A MEANS
CURRENT SKY AND/OR WEATHER CONDITIONS ARE NOT AVAILABLE.

MNZ060>063-068>070-220800-
   Twin Cities Metro

CITY           SKY/WX    TMP DP  RH WIND       PRES   REMARKS
TWIN CITIES    CLOUDY    51  45  79 W9        29.87S
ST PAUL        PTCLDY    50  44  80 W6        29.87S
CRYSTAL        PTCLDY    49  41  74 W10       29.85S
BLAINE         PTCLDY    52  46  82 SW7       29.85S
LAKEVILLE      PTCLDY    48  43  81 W6        29.87S
EDEN PRAIRIE   MOCLDY    49  43  80 W6        29.86S
SOUTH ST PAUL  PTCLDY    51  44  76 W5        29.86F
LAKE ELMO      FAIR      50  45  81 W5        29.86F
$$
MNZ001>005-007-008-013>017-022>024-027-028-220800-
   Northwest Minnesota

CITY           SKY/WX    TMP DP  RH WIND       PRES   REMARKS
BEMIDJI        CLOUDY    47  41  78 SW8       29.71R
HALLOCK        CLOUDY    48  37  66 W17G25    29.64R
ROSEAU         CLOUDY    48  43  81 W12G18    29.62R
WARROAD        CLOUDY    50  43  76 SW12      29.62R
THIEF RVR FALL CLOUDY    49  36  61 W17G26    29.69R
CROOKSTON      CLOUDY    48  37  66 W22       29.70S
FOSSTON        CLOUDY    46  36  66 W14       29.72R
DETROIT LAKES  MOCLDY    48  39  71 W14G20    29.77F
MOORHEAD       PTCLDY    46  37  71 W13G18    29.78S
PARK RAPIDS    CLOUDY    46  42  86 SW10      29.74R
MAHNOMEN       CLOUDY    47  37  67 W17       29.73F
$$
MNZ006-009>011-018-025>026-220800-
   North Central Minnesota

CITY           SKY/WX    TMP DP  RH WIND       PRES   REMARKS
BAUDETTE       CLOUDY    49  42  77 SW14      29.63R
FLAG ISLAND    CLOUDY    50  43  76 SW17      29.56R
INTL FALLS     PTCLDY    46  44  93 SW8       29.66R
WASKISH        CLOUDY    48  45  87 SW9       29.67R
BIG FORK       CLOUDY    45  43  93 S6        29.71R
LONGVILLE      CLEAR     46  43  87 SW5       29.75S
GRAND RAPIDS   CLOUDY    46  44  93 S7        29.76R
CRANE LAKE     CLOUDY    48  46  93 S3        29.70R
ORR            CLOUDY    46  43  87 SW7       29.67R
COOK           CLOUDY    48  46  93 SW6       29.71R
WALKER         PTSUNNY   46  42  86 SW6       29.74R
$$
MNZ012-019>021-037-220800-
   Northeast Minnesota

CITY           SKY/WX    TMP DP  RH WIND       PRES   REMARKS
DULUTH         CLOUDY    49  47  93 W12       29.75R
ELY            CLOUDY    52  50  93 SW6       29.70S
HIBBING        CLOUDY    46  45  96 SW5       29.73R
EVELETH        CLOUDY    50  49  95 SW7       29.74R
DULUTH HARBOR  CLOUDY    54  50  87 SW14      29.76S
TWO HARBORS    PTCLDY    55  52  88 SW6       29.71R
SILVER BAY     CLOUDY    54  54 100 SW3       29.70
GRAND MARAIS     N/A     57  56  96 SW5       29.68S
G MARAIS ARPRT DRIZZLE   57  54  88 S12G22    29.70F
$$
MNZ029>031-032-039>041-046>048-054>057-064-220800-
   West Central Minnesota

CITY           SKY/WX    TMP DP  RH WIND       PRES   REMARKS
FERGUS FALLS   MOCLDY    46  37  71 W13       29.83R
WHEATON        CLEAR     46  37  71 W8        29.87R
MORRIS         PTCLDY    45  39  81 W7        29.85R
ALEXANDRIA     MOCLDY    47  40  76 W12       29.84R
ELBOW LAKE     MOCLDY    45  39  77 SW10      29.84R
WADENA         CLOUDY    46  39  76 W10G18    29.77F
GLENWOOD       CLEAR     45  41  87 W9        29.85R
APPLETON       CLEAR     46  39  76 W8        29.87R
BENSON         CLEAR     45  39  81 W8        29.88R
ORTONVILLE     CLEAR     45  37  76 W7        29.87R
MADISON        CLEAR     48  39  71 W9        29.89R
WILLMAR        FAIR      45  41  87 SW10      29.89R
$$
MNZ033>034-036-042>043-049>051-058-059-220800-
   Central Minnesota

CITY           SKY/WX    TMP DP  RH WIND       PRES   REMARKS
ST CLOUD       CLOUDY    46  43  89 SW7       29.84S
SAUK CENTRE    FAIR      43  40  89 SW8       29.83S
PAYNESVILLE    PTCLDY    45  42  89 SW9       29.86R
AITKIN         CLEAR     43  41  93 SW6       29.77S
PINE RIVER     CLEAR     43  39  87 SW5       29.80F
BRAINERD       CLEAR    N/A N/A N/A SW9       29.79S
STAPLES        CLOUDY    45  39  81 SW7       29.78F
LONG PRAIRIE   FAIR      43  39  87 S7        29.82F
LITTLE FALLS   CLOUDY    45  37  76 SW6       29.83R
LITCHFIELD     CLOUDY    46  43  87 SW6       29.88R
BUFFALO        PTCLDY    47  42  84 SW5       29.87S
MAPLE LAKE     PTCLDY    47  44  88 SW6       29.87S
HUTCHINSON     CLEAR     46  42  86 SW6       29.89R
$$
MNZ037-044-045-052-053-220800-
   East Central Minnesota

CITY           SKY/WX    TMP DP  RH WIND       PRES   REMARKS
PRINCETON      PTCLDY    46  43  87 SW6       29.84S
MORA           CLEAR     45  41  87 SW6       29.83F
CAMBRIDGE      CLEAR     48  46  93 SW6       29.84S
RUSH CITY      PTCLDY    47  43  85 SW5       29.83F
MOOSE LAKE     PTCLDY    46  43  87 CALM      29.77S
HINCKLEY       FAIR      46  45  93 SW6       29.81S
CLOQUET        CLOUDY    48  45  87 SW6       29.76R
MCGREGOR       CLEAR     45  43  93 SW5       29.78S
$$
MNZ071>073-080-081-089-090-097-098-220800-
   Southwest Minnesota

CITY           SKY/WX    TMP DP  RH WIND       PRES   REMARKS
MONTEVIDEO     CLEAR     45  39  81 W5        29.89R
GRANITE FALLS  CLEAR     42  39  88 SW6       29.91R
CANBY          CLEAR     48  39  70 SW10      29.91R
MARSHALL       CLEAR     45  39  79 W8        29.92R
REDWOOD FALLS  CLEAR     46  39  76 SW10      29.91R
OLIVIA         CLEAR     41  37  87 SW6       29.89R
PIPESTONE      PTCLDY    39  36  87 CALM      29.93S
WORTHINGTON    PTCLDY    42  38  85 SW8       29.96R
JACKSON        PTCLDY    43  37  81 SW7       29.95R
TRACY          CLEAR     45  40  83 SW6       29.94R
SLAYTON        PTCLDY    43  38  80 W8        29.94S
$$
MNZ065>067-074>077-082>085-091>093-220800-
   South Central Minnesota

CITY           SKY/WX    TMP DP  RH WIND       PRES   REMARKS
MANKATO        MOCLDY    48  42  80 W8        29.91R
NEW ULM        PTCLDY    43  39  87 CALM      29.91R
ST JAMES       PTCLDY    46  41  81 SW9       29.94R
FAIRMONT       CLOUDY    47  41  80 W10       29.94R
GLENCOE        PTCLDY    48  43  84 SW5       29.89R
FARIBAULT      CLOUDY    50  45  81 SW7       29.89S
OWATONNA       CLOUDY    48  45  87 W8        29.90S
WASECA         CLOUDY    46  43  87 W7        29.91S
$$
MNZ078>079-086>088-094>096-220800-
   Southeast Minnesota

CITY           SKY/WX    TMP DP  RH WIND       PRES   REMARKS
ROCHESTER      CLOUDY    49  45  86 NW8       29.89S
RED WING       CLOUDY    52  45  76 W3        29.85F
STANTON        PTCLDY    50  44  81 SW5       29.86F
DODGE CENTER   CLOUDY    48  43  81 W3        29.89R
WINONA         CLOUDY    54  50  87 NW8       29.87R
AUSTIN         CLOUDY    48  45  87 W8        29.90R
PRESTON        CLOUDY    49  44  82 NW12G17   29.90R
$$
ABBREVIATIONS USED IN REMARKS
   TC - TEMPERATURES IN CELSIUS
  WCI - WIND CHILL INDEX
   HX - HEAT INDEX
  VSB - VISIBILITY
$$




USA.gov is the U.S. government's official web portal to all federal, state and local government web resources and services.